STARLINK-34582, 64781

Orbit data source: Space-Track

STARLINK-34582, 64781 is a payload satellite owned by SpaceX/Seattle (US) in LEO that was launched on Tue, 08 Jul 2025 UTC via an FALCON 9 launch vehicle from the Air Force Eastern Test Range (AFETR). Payload-class satellites include a variety of spacecraft equipped with specific instruments for various scientific and technological missions. These include communications satellites like Starlink; space stations such as the ISS; scientific satellites like the Hubble; Earth observation satellites from companies like Planet Labs, Umbra, and HawkEye 360; GPS; miniature CubeSats for education and research; and military/defense satellites.

Loading next visibility...
Identifier
64781, 2025-147AC
Orbit
LEO
Country
Flag of USUS
Related business
Manufacturer
SpaceX/Seattle
Mission
Operational spacecraft
Bus & Motor
STARLINK V2MO, Unknown motor
Mass
575 kg wet, ~530 kg dry
Launch date (UTC)
2025-07-08 (2 months ago)
Launch vehicle
FALCON 9
Launch site
Air Force Eastern Test Range (AFETR)
Object type
Payload
Rocket body
Debris
Shape & HBR
Unknown
Radar Cross Section
Large (>1 m²)

Expand to show TLE details & history
Last TLE update: 17 hours ago

TLE from 17 hours ago
0 STARLINK-34582
1 64781U 25147AC  25242.73975234  .00043721  00000-0  10962-2 0  9997
2 64781  53.1624  50.6023 0001172  75.1400 284.9735 15.39634070  9435
Epoch: 2025-08-30T17:45Z
TLE epoch observation values (Epoch: 2025-08-30T17:45:14.602Z)
Latitude
0.00002°
Longitude
165.12175°
Altitude
447.888 km
Speed
7.645 km/s
True Right ascension
03h 22m 24s
True Declination
0° 00' 00"
Sunlit
Object was in daylight at epoch
Visualization orbit readout
Latitude
Unknown
Longitude
Unknown
Altitude
Unknown
Speed
Unknown
Apparent Right ascension
Unknown
Apparent Declination
Unknown
Sunlit
N/A
Visualization observer readout
Local Sidereal Time
02:27:12
Azimuth
Unknown
Elevation
Unknown
Doppler factor
Unknown
Orbital elements
Apogee altitude
448.248 km
Perigee altitude
446.648 km
Semi-major axis
6,825.585 km
Eccentricity
0.00012
Inclination
53.1624°
RAAN
50.6023°
Arg. of periapsis
75.14°
True anomaly
284.96053°
Mean anomaly
284.9735°
Eccentric anomaly
284.96701°
Mean motion
3.84887 °/min
Orbital period
93.53 mins
BSTAR
0.0010962
Loading maneuver chart data...
Computing Atmospheric mass density...
Loading historical data...
Loading historical data...
Loading historical data...
Loading historical data...
Loading historical data...
Loading historical data...
Loading historical data...

Documentation

Showing up to 5 results
|